Location: Whitehorse
(60.7170°N, 135.0500°W)
Time: 03:48:42
(UTC-08:00)

SL-16 R/B - Visible Passes

Search period start: 09 February 2016 00:00
Search period end: 19 February 2016 00:00
Orbit: 840 x 850 km, 71.0° (Epoch: 08 February)

Date Brightness Start Highest point End Pass type
(mag) Time Alt. Az. Time Alt. Az. Time Alt. Az.
09 Feb 2.3 19:30:53 10° SSW 19:36:26 56° ESE 19:41:09 15° NE visible
09 Feb 2.8 21:15:07 10° WSW 21:20:43 54° NW 21:23:04 33° NNE visible
09 Feb 3.9 23:00:55 10° WNW 23:04:58 29° NNW 23:04:58 29° NNW visible
10 Feb 4.9 00:46:28 10° NW 00:46:52 12° NW 00:46:52 12° NW visible
10 Feb 2.3 19:16:51 10° SSW 19:22:24 55° ESE 19:27:48 11° NE visible
10 Feb 2.8 21:01:03 10° WSW 21:06:39 54° NW 21:09:42 27° NNE visible
10 Feb 3.7 22:46:50 10° WNW 22:51:36 31° NNW 22:51:36 31° NNW visible
11 Feb 4.7 00:32:24 10° NW 00:33:30 15° NW 00:33:30 15° NW visible
11 Feb 2.4 19:02:49 10° SSW 19:08:22 54° ESE 19:13:55 10° NE visible
11 Feb 2.8 20:46:58 10° WSW 20:52:35 55° NW 20:56:16 22° NE visible
11 Feb 3.7 22:32:46 10° WNW 22:37:50 31° NNW 22:38:10 31° N visible
12 Feb 4.6 00:18:20 10° NW 00:20:04 18° NW 00:20:04 18° NW visible
12 Feb 2.4 18:48:48 10° SSW 18:54:19 53° ESE 18:59:51 10° NE visible
12 Feb 2.8 20:32:54 10° WSW 20:38:32 56° NW 20:42:47 18° NE visible
12 Feb 3.6 22:18:41 10° WNW 22:23:46 32° NNW 22:24:40 30° N visible
13 Feb 4.4 00:04:15 10° NW 00:06:34 21° NNW 00:06:34 21° NNW visible
13 Feb 2.5 18:34:47 10° SSW 18:40:17 52° ESE 18:45:48 10° NE visible
13 Feb 2.8 20:18:50 10° WSW 20:24:28 57° NW 20:29:15 15° NE visible
13 Feb 3.7 22:04:35 10° WNW 22:09:41 32° NNW 22:11:08 28° NNE visible
13 Feb 4.2 23:50:11 10° NW 23:53:01 24° NNW 23:53:01 24° NNW visible
14 Feb 5.0 01:34:49 10° NW 01:34:55 10° NW 01:34:55 10° NW visible
14 Feb 2.8 20:04:46 10° WSW 20:10:24 58° NW 20:15:40 12° NE visible
14 Feb 3.7 21:50:30 10° WNW 21:55:36 32° NNW 21:57:33 26° NNE visible
14 Feb 4.1 23:36:07 10° NW 23:39:26 27° NNW 23:39:26 27° NNW visible
15 Feb 4.8 01:20:47 10° NW 01:21:20 13° NW 01:21:20 13° NW visible
15 Feb 2.7 19:50:42 10° WSW 19:56:20 59° NW 20:02:00 10° NE visible
15 Feb 3.7 21:36:26 10° WNW 21:41:31 32° NNW 21:43:57 23° NNE visible
15 Feb 3.9 23:22:03 10° NW 23:25:49 29° NNW 23:25:49 29° NNW visible
16 Feb 4.7 01:06:42 10° NW 01:07:43 15° NW 01:07:43 15° NW visible
16 Feb 2.7 19:36:38 10° WSW 19:42:17 60° NW 19:47:56 10° NE visible
16 Feb 3.6 21:22:20 10° WNW 21:27:27 32° NNW 21:30:19 21° NNE visible
16 Feb 3.8 23:07:59 10° NW 23:12:12 30° N 23:12:12 30° N visible
17 Feb 4.5 00:52:39 10° NW 00:54:04 18° NW 00:54:04 18° NW visible
17 Feb 2.7 19:22:33 10° WSW 19:28:12 60° NW 19:33:53 10° NE visible
17 Feb 3.6 21:08:15 10° WNW 21:13:22 32° NNW 21:16:39 19° NE visible
17 Feb 3.7 22:53:55 10° NW 22:58:33 31° N 22:58:33 31° N visible
18 Feb 4.4 00:38:36 10° NW 00:40:25 21° NW 00:40:25 21° NW visible
18 Feb 2.7 19:08:29 10° WSW 19:14:09 61° NW 19:19:50 10° NE visible
18 Feb 3.6 20:54:10 10° WNW 20:59:18 33° NNW 21:02:59 17° NE visible
18 Feb 3.6 22:39:50 10° NW 22:44:52 31° N 22:44:52 31° N visible
